RH
8 7 7 6 8 21 57 68 65 60 100 68 51 41 32 43 66 74 64 80 66 48 40 54 29 14 14 14 16 14 12 11 12 11 9 9 16 27 35 73 90 96 97 97
9 11 8 8 11 38 54 76 86 82 99 79 45 38 49 63 62 77 67 70 52 44 44 48 28 15 14 18 17 14 11 12 13 12 10 12 30 30 39 38 59 70 88 91
15 12 10 9 10 55 49 64 91 70 99 72 58 45 46 60 62 66 71 63 69 50 39 43 34 19 17 22 18 14 13 15 16 14 10 25 31 31 42 39 52 66 66 91
16 13 10 9 20 74 62 90 91 95 95 63 84 50 49 62 57 64 92 88 90 66 38 50 37 17 21 23 19 13 16 18 17 13 9 35 45 42 39 36 30 50 54 81
16 14 11 9 36 67 65 92 86 92 92 62 100 58 59 66 53 48 72 78 77 69 59 56 63 30 21 22 19 15 18 23 16 13 11 12 36 37 32 26 21 34 66 73
21 13 10 15 22 70 78 76 88 99 100 74 81 71 71 66 47 50 74 79 72 70 61 62 52 35 21 23 19 16 20 24 20 14 14 11 9 16 35 36 42 51 67 83
18 14 11 14 19 59 74 70 89 97 98 85 63 88 54 78 91 90 96 80 70 49 48 49 34 32 21 26 21 17 18 22 25 18 15 21 15 7 10 16 49 83 84 83
24 12 12 20 20 59 91 99 98 96 84 96 79 76 63 96 94 98 91 74 65 66 41 52 43 28 19 22 25 22 17 19 28 22 20 18 27 20 13 7 12 22 54 87
20 11 13 26 32 56 96 94 100 98 97 96 78 79 77 95 94 96 88 75 58 64 59 54 64 40 20 22 32 29 18 18 27 28 22 22 22 33 38 24 16 8 9 18
26 16 12 23 50 58 97 99 99 97 100 99 82 97 95 97 93 100 88 71 69 83 86 71 61 48 24 22 31 34 26 22 25 30 28 27 20 24 23 22 33 28 20 14
34 22 16 28 86 89 90 98 94 100 100 100 94 98 85 96 98 95 92 68 68 68 62 56 63 68 51 26 23 29 33 28 30 28 28 31 29 30 27 27 24 21 36 36
33 27 38 28 79 87 85 99 98 100 100 100 96 88 79 96 90 85 94 85 76 54 65 65 61 60 56 37 27 26 33 38 35 33 30 33 34 42 39 40 38 33 22 41
41 39 24 43 41 96 73 99 100 100 100 98 100 91 98 96 98 87 90 100 82 48 52 67 62 55 60 56 46 40 37 50 40 39 43 37 36 41 50 49 46 44 40 28
38 26 22 18 26 67 88 99 99 98 94 95 93 100 97 99 99 94 91 96 87 65 72 74 77 75 86 85 68 52 53 46 41 28 30 38 42 43 45 48 52 61 55 41
39 20 18 12 7 20 71 100 99 88 91 88 94 96 98 98 98 100 91 97 100 84 82 71 91 88 88 96 97 95 96 96 95 83 76 61 55 64 69 63 59 63 71 71
39 20 15 9 6 8 26 94 99 100 98 84 96 96 99 95 98 97 98 97 99 90 96 87 92 81 82 91 87 95 98 98 100 98 93 90 79 71 75 77 70 65 68 80
30 23 14 9 8 40 22 100 98 100 99 98 95 100 96 99 98 98 97 98 98 94 93 100 100 95 93 93 85 84 84 79 85 99 98 97 96 96 88 86 87 92 96 89
15 17 14 10 8 20 76 100 96 93 100 100 97 99 98 96 97 99 94 98 98 98 98 97 99 99 99 93 92 94 89 82 77 66 62 67 73 81 94 99 98 98 96 95
6 7 8 9 6 16 90 74 77 96 100 96 99 99 91 97 98 99 100 100 99 98 97 97 97 99 98 95 92 84 90 99 83 74 70 78 84 83 95 98 92 94 95 98
4 5 5 5 4 8 86 87 39 54 78 100 97 93 98 99 96 100 100 99 98 98 98 100 100 95 84 84 78 84 98 99 99 99 92 88 85 75 70 65 61 63 70 83
5 3 3 2 2 5 86 88 99 88 81 93 97 96 98 97 100 99 98 98 99 100 98 98 97 91 79 76 76 61 53 75 95 91 80 55 42 42 41 34 30 34 36 41
56 38 30 9 2 2 76 98 89 100 100 89 100 98 100 100 100 100 98 99 99 99 100 98 82 68 55 52 53 52 51 48 41 40 44 35 27 24 23 23 21 18 16 14
100 100 80 47 42 49 23 82 100 96 99 100 100 100 99 99 100 98 83 73 94 89 88 83 74 60 46 48 47 48 53 48 34 27 26 27 28 29 29 28 25 22 22 22
100 100 98 100 95 20 8 62 96 100 100 98 100 100 100 100 100 96 79 62 49 35 36 39 40 24 15 16 21 20 15 12 10 8 8 6 6 5 5 5 4 5 5 5
100 100 98 96 98 86 39 36 100 100 100 100 100 95 100 92 87 84 74 53 42 36 21 11 20 24 22 16 13 11 10 8 7 7 7 6 6 5 5 4 4 4 4 4
87 92 100 96 93 96 92 82 95 100 100 100 100 100 92 85 77 67 63 47 22 18 32 32 24 18 15 14 14 14 14 11 10 10 9 8 8 7 7 6 5 5 4 5
Wind_Speed
37 38 39 41 40 41 36 35 36 34 29 32 30 34 35 42 40 32 33 23 25 24 13 8 21 15 15 14 14 13 11 10 9 11 11 13 15 15 13 19 26 25 36 34
35 32 38 40 39 37 33 31 33 31 31 36 30 38 38 39 41 30 29 25 27 23 12 6 17 12 15 14 14 14 10 8 10 13 16 15 12 16 19 20 22 19 19 27
30 30 35 38 39 32 34 34 31 33 37 36 33 40 38 39 36 30 27 22 22 26 15 6 12 12 15 14 13 12 9 8 12 17 15 13 6 9 19 19 19 19 20 20
30 29 31 35 34 29 34 33 37 32 37 40 44 44 38 41 38 28 24 25 24 21 15 8 10 12 14 15 12 11 9 9 14 12 12 10 5 10 16 15 12 12 13 19
29 28 30 28 27 29 25 33 32 31 40 46 46 42 36 39 38 26 22 22 23 21 18 9 7 15 14 15 13 12 9 9 11 9 8 7 5 4 10 11 13 12 14 21
27 24 27 25 26 27 24 36 30 30 41 52 46 47 31 37 31 22 23 27 27 22 18 12 11 17 17 17 15 13 11 9 7 9 6 6 4 2 4 8 11 12 13 18
24 26 23 23 25 21 28 33 32 32 39 52 44 47 35 19 14 18 24 29 31 26 22 15 14 16 20 20 17 16 14 12 8 7 6 4 2 3 2 2 3 7 15 11
21 26 20 23 23 18 24 26 33 34 34 49 43 52 38 28 21 24 30 22 24 28 18 15 10 18 22 21 18 18 17 16 12 8 5 5 3 3 3 5 5 6 8 12
21 23 19 18 16 13 15 18 25 30 28 41 42 44 40 37 29 29 27 28 28 26 15 14 12 17 21 19 19 19 18 18 15 10 7 6 4 5 4 4 3 4 6 7
25 19 20 16 10 8 17 17 20 24 31 34 35 37 36 31 35 30 34 31 30 27 25 20 17 16 20 22 23 21 21 19 17 14 10 9 7 6 5 4 4 4 5 4
23 18 21 15 6 5 17 22 19 21 30 32 31 30 30 27 25 29 31 32 28 25 17 14 13 15 19 23 25 24 23 22 19 17 13 11 11 11 10 9 8 9 7 6
22 19 17 17 13 6 10 23 23 19 30 29 31 30 30 34 37 40 42 33 30 25 21 19 19 21 21 23 26 26 26 25 24 20 17 16 16 14 11 10 9 9 9 7
22 19 17 18 19 13 10 18 31 25 30 34 31 33 30 37 41 40 40 40 37 28 23 19 19 18 18 26 28 29 29 29 30 28 21 20 21 20 18 14 13 13 13 13
28 25 22 20 21 18 13 18 29 35 35 39 37 46 18 41 43 42 43 44 40 31 28 23 20 21 22 24 30 33 31 31 31 31 28 26 24 25 25 22 20 19 17 17
30 27 26 25 22 26 18 16 22 33 33 40 40 46 35 23 40 51 49 38 38 33 34 27 23 25 23 22 25 31 34 34 32 27 27 29 28 28 27 26 25 25 24 24
29 27 28 26 23 24 28 22 17 21 29 36 39 45 42 33 25 32 47 48 41 36 35 37 30 30 30 27 27 28 25 25 26 27 28 27 28 30 31 31 31 29 28 28
28 28 28 26 25 24 24 19 16 13 24 29 43 33 28 47 37 31 28 34 37 47 39 31 30 33 35 34 32 32 37 39 37 33 31 31 30 32 34 34 34 33 34 34
29 29 28 27 27 24 21 19 22 18 18 22 34 28 34 35 35 28 41 40 41 42 45 45 39 36 36 40 41 43 43 42 42 41 39 38 38 37 38 39 40 40 40 40
30 29 29 29 27 25 25 23 21 19 20 24 24 27 28 29 27 28 26 31 33 36 32 33 34 34 37 41 44 44 44 49 47 45 44 44 46 44 42 44 46 46 47 46
30 32 32 31 31 30 27 26 23 26 25 17 19 26 20 20 24 30 31 37 32 32 34 31 30 32 35 37 40 38 45 51 51 52 51 52 54 54 51 48 46 46 46 48
30 32 32 32 34 32 29 32 23 26 25 23 19 25 29 22 21 25 26 29 28 26 29 31 36 38 37 38 39 39 39 40 39 39 42 45 48 50 51 51 50 50 51 52
17 19 20 29 35 36 35 30 29 29 29 26 28 23 21 31 32 25 18 20 30 29 27 32 31 33 35 37 39 40 43 45 46 47 47 50 52 54 55 56 57 57 57 58
17 12 12 12 15 24 34 35 29 32 28 26 22 28 38 28 20 27 25 25 27 30 31 35 37 38 40 42 42 43 44 45 45 45 46 47 50 53 55 58 59 62 63 63
14 9 20 15 13 28 40 40 38 29 30 25 24 27 25 27 28 30 30 31 33 35 38 40 42 45 45 43 42 40 38 39 40 42 44 46 48 50 51 54 56 58 60 63
12 15 16 17 16 13 28 44 30 31 31 33 31 27 26 29 31 35 36 37 39 45 47 45 43 39 37 37 37 37 38 39 40 41 43 45 46 48 50 52 54 55 57 58
10 19 20 20 20 13 12 29 35 35 32 37 38 36 35 37 39 42 44 47 47 45 39 35 34 35 36 37 39 39 39 41 43 46 48 50 52 53 55 57 58 59 60 60
Wind_Direction
280 281 285 287 289 289 266 258 235 226 247 231 233 238 230 228 231 228 225 228 240 244 241 261 263 269 250 254 269 273 282 296 299 303 303 297 282 267 232 193 208 220 207 215
280 284 285 288 290 282 260 243 233 233 221 225 229 227 233 228 233 229 234 222 227 237 231 234 262 262 255 252 265 271 273 286 305 315 309 307 278 242 220 217 212 214 231 232
278 281 285 289 295 273 255 234 228 232 228 222 224 230 228 224 228 225 231 230 235 240 209 202 253 252 249 252 261 269 268 291 309 310 307 314 316 207 209 214 221 206 219 219
278 278 283 291 299 266 255 232 231 233 217 212 224 227 227 225 230 215 224 227 240 246 221 208 237 252 239 251 255 259 262 293 318 314 322 348 27 156 193 207 224 218 225 210
273 276 282 293 297 261 239 226 238 239 229 213 219 231 218 225 226 217 230 233 228 231 233 211 234 252 235 248 252 253 261 300 327 317 330 356 10 188 195 218 228 215 222 207
269 268 277 288 300 260 233 234 250 247 233 224 211 229 206 225 234 226 229 231 229 224 231 216 218 240 234 241 245 250 260 284 320 324 330 332 343 354 207 221 228 219 232 205
263 263 275 282 285 284 234 237 248 248 235 231 217 228 200 207 217 224 220 226 233 234 221 210 193 227 232 236 242 249 256 271 295 302 326 321 322 277 278 245 193 220 213 185
250 264 264 278 285 289 238 244 245 242 245 228 219 225 213 202 210 192 224 223 225 237 214 196 189 221 235 235 243 250 254 263 275 287 302 291 275 260 234 238 244 216 217 224
247 253 258 275 285 292 238 240 241 245 244 234 230 230 234 236 223 206 230 232 227 232 203 212 229 230 236 236 241 248 252 258 270 274 266 294 258 245 268 252 245 248 255 259
245 249 252 259 279 299 239 239 241 238 240 237 234 239 234 224 197 205 221 223 226 228 230 226 231 229 238 233 238 243 251 256 266 270 266 268 255 241 240 274 280 269 264 272
242 238 252 246 265 273 255 227 233 240 233 229 236 232 219 193 200 204 221 229 230 233 219 212 218 227 235 240 243 244 250 251 259 264 266 268 262 272 271 256 259 274 267 255
230 234 243 240 228 217 251 227 220 242 223 212 227 233 230 208 202 203 212 224 223 233 236 224 221 224 233 235 241 241 245 248 252 256 258 258 264 272 281 266 261 260 267 264
241 238 233 239 242 209 230 226 209 217 220 213 207 203 175 192 198 205 204 222 224 237 237 220 228 234 253 254 251 246 240 240 244 248 248 251 253 259 265 271 278 261 252 253
232 241 242 233 237 229 221 235 228 216 220 217 210 194 198 188 196 214 218 209 221 230 228 231 232 235 242 241 249 254 257 254 259 259 256 251 250 256 262 267 272 268 268 260
230 235 238 239 238 238 225 216 226 224 229 223 220 212 214 218 200 207 209 214 222 228 233 232 235 246 250 248 246 250 248 244 244 243 251 257 260 259 258 260 264 264 269 266
229 231 238 243 240 235 231 222 203 224 229 225 215 222 230 221 222 204 211 210 214 226 224 244 234 253 258 259 260 255 252 256 258 262 241 241 251 256 263 266 267 267 268 269
239 235 236 240 241 230 230 234 212 206 226 228 217 205 220 233 225 229 215 216 238 226 218 204 233 257 255 258 259 257 255 254 249 246 247 250 250 253 253 258 261 264 270 271
241 239 233 231 239 233 230 233 233 221 227 204 222 226 233 237 229 229 240 244 224 221 223 229 230 230 250 258 264 267 265 259 257 254 253 254 253 252 253 259 264 268 268 268
241 239 241 238 234 229 227 223 241 216 218 220 216 205 217 230 224 234 224 227 230 228 226 231 245 255 258 256 258 264 260 259 260 261 260 259 259 260 260 264 266 265 265 266
241 242 238 236 233 230 221 228 236 239 232 225 226 220 189 189 217 219 220 226 230 226 232 234 242 249 256 262 267 267 257 252 253 254 257 260 266 268 266 262 261 263 263 262
236 239 238 237 235 227 221 226 230 231 230 236 233 233 232 234 222 222 218 213 210 225 239 247 250 250 254 256 259 264 268 268 264 260 260 264 265 265 264 264 265 265 264 265
210 226 233 233 230 227 215 216 213 219 231 242 247 238 242 227 218 227 247 239 237 251 252 247 249 257 257 259 260 260 261 263 264 263 263 263 266 268 269 270 270 268 268 269
210 258 216 227 222 229 218 212 202 209 221 219 217 219 232 254 251 253 257 258 257 257 260 255 259 267 268 265 263 262 262 264 266 267 268 267 267 267 268 270 271 273 273 271
232 230 217 240 245 227 214 207 215 207 212 203 215 237 228 242 257 262 265 266 264 265 267 267 267 269 268 265 262 262 263 265 268 270 272 272 273 274 274 273 273 273 274 274
229 220 225 227 237 227 209 207 214 210 217 217 226 232 237 244 254 265 263 264 267 273 275 275 271 263 258 258 261 266 270 272 273 274 277 279 281 282 282 282 282 281 280 277
242 228 239 229 207 217 211 209 219 230 241 245 247 251 258 261 267 270 267 272 273 271 267 259 254 254 257 261 265 270 273 275 276 279 282 283 284 285 285 285 285 284 285 284